Погода в Дарбханге

Индия     26°08′43″N   85°53′58″E
темп.,
°C
ветер,
м/с
пор.,
м/с
влажн.,
%
обл.,
%
осадки,
мм/ч
давл.,
гПа
погр.,
м
14 июня, пн
пн1423:30+27всв2490100 7.9 998145
02:30+27в51082100 4.4 996495
05:30+27в71488100 5.8 997813
08:30+26в81491100 1.4 998771
11:30+28в71283100 2.5 998769
14:30+30в71074100 3.0 995950
17:30+29в71177100 3.3 994757
20:30+27в51188100 6.3 996379
15 июня, вт
вт1523:30+26в41192100 13.3 996358
02:30+26в4995100 10.8 994265
05:30+27в61189100 20.9 995334
08:30+29в7118072 6.5 996584
11:30+30в71076100 13.9 996662
14:30+31в6870100 9.9 994988
17:30+29вюв5978100 21.4 994199
20:30+26с4691100 12.9 996196
16 июня, ср
ср1623:30+25ссв3693100 19.3 996181
02:30+26всв31092100 6.1 995342
05:30+27в6129220 6.2 996588
08:30+29в7107590 0.1 9971061
11:30+33вюв685835 0.1 9971427
14:30+34юв355698 0.1 9951409
17:30+33зюз215796 0.1 994884
20:30+29ю2280100 5.5 99767
17 июня, чт
чт1723:30+28всв3781100 9.2 997243
02:30+27в71485100 1.6 996749
05:30+26в71486100 1.6 996753
08:30+28в81479100 0.0 9981134
11:30+31в9146347 0.2 9971600
14:30+32вюв7146182 0.2 9951815
17:30+30вюв7136991 0.9 9951100
20:30+28в8157311 0.0 998863
18 июня, пт
пт1823:30+27в7148026 0.1 998904
02:30+26в9148687 0.4 998876
05:30+26в10168566 0.4 998803
08:30+28в10157991 0.0 9991023
11:30+30вюв10146631 0.1 9981404
14:30+33в11155653 0.9 9961831
17:30+30вюв914675 1.8 9971367
20:30+28в8147654 0.2 999824